User: anonymous   Login
Location: ??
(35.5052°N, 139.7262°E)
Time: 05:05:54
(UTC+00:00)
Language:

Cosmos 1726 Rocket - Orbit

View from above orbital plane
View from above orbital plane
View from above satellite
View from above satellite

Ground track
Ground track

The orbit data is extracted from the following two-line orbital elements,

1 16496U 86006B   21261.53591377  .00000087  00000-0  75341-5 0  9998
2 16496  82.5286 352.7958 0018706 343.4022  27.1879 14.84198019906798
Epoch (UTC): 18 September 2021 12:51:42
Eccentricity: 0.0018706
inclination: 82.5286°
perigee height: 603 km
apogee height: 629 km
right ascension of ascending node: 352.7958°
argument of perigee: 343.4022°
revolutions per day: 14.84198019
mean anomaly at epoch: 27.1879°
orbit number at epoch: 90679

The dashed part of the orbit path shows where the satellite is in the earth's shadow,  

DLR